Regional Weather Roundup
Issued by NWS

Home | Current Version | Previous Version | Graphics & Text | Print | Product List | Glossary On
Versions: 1 2 3 4 5 6 7 8 9 10 11 12 13 14 15 16 17 18 19 20 21 22 23 24 25 26 27
000
ASUS45 KCYS 181310
RWRWY

WYOMING REGIONAL WEATHER ROUNDUP
NATIONAL WEATHER SERVICE CHEYENNE WY
700 AM MDT FRI APR 18 2014

NOTE:  "FAIR" INDICATES FEW OR NO CLOUDS BELOW 12,000 FEET
WITH NO SIGNIFICANT WEATHER AND/OR OBSTRUCTIONS TO VISIBILITY.

WYZ001-181400-
YELLOWSTONE NATIONAL PARK

CITY           SKY/WX    TMP DP  RH WIND       PRES   REMARKS
LK YELLOWSTONE   N/A     32  32 100 CALM      29.90R
W YELLOWSTONE  NOT AVBL

$$
WYZ002>013-054>058-071-098>099-181400-
NORTHERN WYOMING

CITY           SKY/WX    TMP DP  RH WIND       PRES   REMARKS
JACKSON        CLOUDY    36  30  80 CALM      29.88F
CODY           MOCLDY    46  36  66 W3        29.75R
GREYBULL       CLOUDY    43  35  73 CALM      29.75F
WORLAND        MOCLDY    47  31  53 SE15      29.75F
SHERIDAN       CLOUDY    39  34  82 VRB6      29.74R WCI  35
BUFFALO        CLOUDY    47  27  45 VRB7      29.75F
GILLETTE       PTCLDY    44  33  65 SE15      29.75F
HULETT         FAIR     N/A N/A N/A CALM      29.80
NEWCASTLE      FAIR      36  32  87 CALM      29.85

$$
WYZ014>020-022>026-101>103-181400-
CENTRAL WYOMING

CITY           SKY/WX    TMP DP  RH WIND       PRES   REMARKS
BIG PINEY      CLOUDY    32  23  69 CALM      29.93S
PINEDALE       CLOUDY    32  30  93 W5        29.93S WCI  27
DUBOIS         FAIR      37  27  65 W14       29.84F WCI  29
LANDER         MOCLDY    41  26  55 NW9       29.81R
RIVERTON       MOCLDY    36  22  56 NW15      29.82R WCI  27
CASPER         CLOUDY    48  26  42 SW20      29.85F
DOUGLAS        CLOUDY    37  33  85 CALM      29.88R

$$
WYZ021-027>030-104>119-181400-
SOUTHERN WYOMING

CITY           SKY/WX    TMP DP  RH WIND       PRES   REMARKS
EVANSTON       MOCLDY    47  24  40 SW12      29.93S
KEMMERER       CLOUDY    45  25  45 SW13G20   29.93S
FORT BRIDGER   FAIR      48  23  37 SW7       29.96R
ROCK SPRINGS   CLOUDY    46  21  37 SW10      29.94F
DIXON          FAIR      37  27  67 E6        30.05R WCI  32
RAWLINS        CLOUDY    47  22  37 SW9       29.97S
SARATOGA       FAIR      43  23  45 S14       30.02R
LARAMIE        PTCLDY    44  23  43 SW18      30.02R
CHEYENNE       PTCLDY    39  28  64 E6        29.98S WCI  35
TORRINGTON     PTCLDY    39  34  82 SE8       29.89S WCI  33
PINE BLUFFS    FAIR      36  32  87 SW3       29.98R

$$



USA.gov is the U.S. government's official web portal to all federal, state and local government web resources and services.